Tracking 35237 objects as of 6-Sep-2026
HD Live streaming from Space Station
objects crossing your sky now

PEGASUS DEB


PEGASUS DEB is no longer on orbit


NORAD ID: 24978
Int'l Code: 1994-029ACL
Launch date: May 19, 1994
Source: United States (US)
Launch site: AIR FORCE WESTERN TEST RANGE (AFWTR)
Decay date: 2025-04-15

Note: This is SATELLITE DEBRIS
Your satellite tracking list
Your tracking list is empty




NASA's NSSDC Master Catalog

Two Line Element Set (TLE):
1 24978U 94029ACL 25100.03702345  .03510317  16487-1  66696-2 0  9998
2 24978  81.4001 319.2285 0028109 262.7507  97.0573 16.02876605492462
Source of the keplerian elements: AFSPC